Thermal, CA

4:25 PM PDT on August 29, 2016 (GMT -0700)
Desert Resorts Regional

Weather History for KTRM - January, 2013

Change the Weather History Date:

Tuesday, January 29, 2013

  Actual Average Record
Temperature  
Mean Temperature 49 °F 56 °F  
Max Temperature 66 °F 73 °F 88 °F (1971)
Min Temperature 31 °F 39 °F 25 °F (1975)
Degree Days  
Heating Degree Days 16 9  
Month to date heating degree days 368 303  
Since 1 July heating degree days 806 841  
Cooling Degree Days 0 0  
Month to date cooling degree days 0 0  
Year to date cooling degree days 0 0  
Moisture  
Dew Point 31 °F    
Average Humidity 53    
Maximum Humidity 82    
Minimum Humidity 24    
Precipitation  
Precipitation 0.00 in 0.02 in 0.72 in (1957)
Month to date precipitation 0.37 0.63  
Year to date precipitation 0.37 0.63  
Since 1 July precipitation 2.55  
Snow  
Snow 0.00 in - - ()
Month to date snowfall 0.0  
Year to date snowfall 0.0  
Snow Depth 0.00 in    
Sea Level Pressure  
Sea Level Pressure 30.13 in    
Wind  
Wind Speed 2 mph (North)    
Max Wind Speed 8 mph    
Max Gust Speed 10 mph    
Visibility 10 miles    
Events      
T = Trace of Precipitation, MM = Missing Value Source: NWS Daily Summary

Daily Weather History Graph

Daily Weather History Graph

Search for Another Location

Airport or City:

Trip Planner

Search our weather history database for the weather conditions in past years. The results will help you decide how hot, cold, wet, or windy it might be!

Date:

Astronomy

Jan. 29, 2013 Rise Set
Actual Time 6:42 AM PST 5:13 PM PST
Civil Twilight 6:16 AM PST 5:39 PM PST
Nautical Twilight 5:46 AM PST 6:09 PM PST
Astronomical Twilight 5:17 AM PST 6:38 PM PST
Moon 8:02 PM PST 7:52 AM PST
Length of Visible Light 11h 23m
Length of Day
10h 30m
Waning Gibbous, 93% of the Moon is Illuminated
Jan 29
Waning Gibbous
Feb 3
Last Quarter
Feb 9
New
Feb 17
First Quarter
Feb 25
Full

Hourly Weather History & Observations

Time (PST) Temp. Windchill Dew Point Humidity Pressure Visibility Wind Dir Wind Speed Gust Speed Precip Events Conditions
12:52 AM 42.1 °F 40.2 °F 28.0 °F 58% 30.13 in 10.0 mi NNW 3.5 mph - N/A   Clear
1:52 AM 39.0 °F - 28.9 °F 67% 30.12 in 10.0 mi Calm Calm - N/A   Clear
2:52 AM 35.1 °F - 28.0 °F 76% 30.12 in 10.0 mi Calm Calm - N/A   Clear
3:52 AM 34.0 °F - 27.0 °F 75% 30.12 in 10.0 mi Calm Calm - N/A   Clear
4:52 AM 34.0 °F 31.0 °F 28.0 °F 79% 30.10 in 10.0 mi NNE 3.5 mph - N/A   Clear
5:52 AM 33.1 °F - 28.9 °F 85% 30.13 in 10.0 mi Calm Calm - N/A   Clear
6:52 AM 34.0 °F - 28.0 °F 79% 30.13 in 10.0 mi Calm Calm - N/A   Clear
7:52 AM 41.0 °F - 32.0 °F 70% 30.15 in 10.0 mi Calm Calm - N/A   Clear
8:52 AM 50.0 °F - 33.1 °F 52% 30.15 in 10.0 mi Calm Calm - N/A   Clear
9:52 AM 57.9 °F - 34.0 °F 41% 30.15 in 10.0 mi WNW 8.1 mph - N/A   Clear
10:52 AM 60.1 °F - 30.0 °F 32% 30.15 in 10.0 mi WNW 5.8 mph - N/A   Clear
11:52 AM 62.1 °F - 27.0 °F 26% 30.13 in 10.0 mi Variable 4.6 mph - N/A   Clear
12:52 PM 64.0 °F - 27.0 °F 25% 30.09 in 10.0 mi NNE 4.6 mph - N/A   Clear
1:52 PM 64.9 °F - 26.1 °F 23% 30.07 in 10.0 mi Calm Calm - N/A   Clear
2:52 PM 66.0 °F - 28.0 °F 24% 30.06 in 10.0 mi Calm Calm - N/A   Clear
3:52 PM 64.0 °F - 30.9 °F 29% 30.08 in 10.0 mi Calm Calm - N/A   Clear
4:52 PM 61.0 °F - 34.0 °F 36% 30.08 in 10.0 mi SSE 5.8 mph - N/A   Clear
5:52 PM 52.0 °F - 35.1 °F 53% 30.10 in 10.0 mi ESE 3.5 mph - N/A   Clear
6:52 PM 50.0 °F - 35.1 °F 57% 30.13 in 10.0 mi East 3.5 mph - N/A   Clear
7:52 PM 46.9 °F - 37.0 °F 68% 30.15 in 10.0 mi Calm Calm - N/A   Clear
8:52 PM 48.0 °F - 35.1 °F 61% 30.17 in 10.0 mi Calm Calm - N/A   Clear
9:52 PM 45.0 °F 43.5 °F 36.0 °F 71% 30.19 in 10.0 mi NW 3.5 mph - N/A   Clear
10:52 PM 44.1 °F 41.5 °F 35.1 °F 71% 30.21 in 10.0 mi NE 4.6 mph - N/A   Clear
11:52 PM 42.1 °F - 35.1 °F 76% 30.23 in 10.0 mi Calm Calm - N/A   Clear